Juliana Airport, Saint Maartin

8:14 PM AST on February 08, 2016 (GMT -0400)
Princess Juliana International

Weather History for TNCM - August, 2014

Change the Weather History Date:

Tuesday, August 26, 2014

  Actual Average Record
Temperature  
Mean Temperature 84 °F -  
Max Temperature 87 °F 87 °F 90 °F (2015)
Min Temperature 80 °F 78 °F 77 °F (2006)
Cooling Degree Days 18    
Growing Degree Days 34 (Base 50)    
Moisture  
Dew Point 76 °F    
Average Humidity 74    
Maximum Humidity 84    
Minimum Humidity 61    
Precipitation  
Precipitation 0.04 in 0.17 in - ()
Sea Level Pressure  
Sea Level Pressure 29.99 in    
Wind  
Wind Speed 12 mph ()    
Max Wind Speed 21 mph    
Max Gust Speed -    
Visibility 7.9 miles    
Events Rain    
Averages and records for this station are not official NWS values.
T = Trace of Precipitation, MM = Missing Value Source: Averaged Metar Reports

Daily Weather History Graph

Daily Weather History Graph

Search for Another Location

Airport or City:

Trip Planner

Search our weather history database for the weather conditions in past years. The results will help you decide how hot, cold, wet, or windy it might be!

Date:

Astronomy

Aug. 26, 2014 Rise Set
Actual Time 5:57 AM AST 6:31 PM AST
Civil Twilight 5:34 AM AST 6:53 PM AST
Nautical Twilight 5:08 AM AST 7:19 PM AST
Astronomical Twilight 4:42 AM AST 7:45 PM AST
Moon 6:39 AM AST (8/26) 7:08 PM AST (8/26)
Length of Visible Light 13h 18m
Length of Day
12h 34m
New Moon, 1% of the Moon is Illuminated
Aug 26
New Moon
Sep 2
First Quarter
Sep 8
Full
Sep 15
Last Quarter
Sep 24
New

Hourly Weather History & Observations

Time (AST) Temp. Heat Index Dew Point Humidity Pressure Visibility Wind Dir Wind Speed Gust Speed Precip Events Conditions
12:00 AM 82.4 °F 89.5 °F 75.2 °F 79% 29.95 in 6.2 mi ESE 11.5 mph - N/A   Partly Cloudy
1:00 AM 82.4 °F 89.5 °F 75.2 °F 79% 29.95 in 6.2 mi ESE 11.5 mph - N/A   Partly Cloudy
2:00 AM 81 °F - 75 °F 78% 29.96 in 19 mi ESE 11.5 mph - -   Scattered Clouds
2:00 AM 82.4 °F 89.5 °F 75.2 °F 79% 29.95 in 6.2 mi ESE 11.5 mph - N/A   Partly Cloudy
3:00 AM 82.4 °F 89.5 °F 75.2 °F 79% 29.95 in 6.2 mi ESE 12.7 mph - N/A   Scattered Clouds
4:00 AM 82.4 °F 89.5 °F 75.2 °F 79% 29.95 in 6.2 mi ESE 12.7 mph - N/A   Scattered Clouds
5:00 AM 83 °F - 75 °F 70% 29.97 in 19 mi ESE 12.7 mph - -   Partly Cloudy
5:00 AM 82.4 °F 89.5 °F 75.2 °F 79% 29.95 in 6.2 mi ESE 12.7 mph - N/A   Partly Cloudy
6:00 AM 82.4 °F 88.2 °F 73.4 °F 74% 29.98 in 6.2 mi SE 20.7 mph - N/A   Partly Cloudy
7:00 AM 84.2 °F 92.3 °F 75.2 °F 74% 29.98 in 6.2 mi SE 18.4 mph - N/A   Partly Cloudy
8:00 AM 85 °F - 76 °F 67% 29.99 in 22 mi SE 16.1 mph - -   Partly Cloudy
8:00 AM 84.2 °F 92.3 °F 75.2 °F 74% 29.98 in 6.2 mi SE 16.1 mph - N/A   Partly Cloudy
9:00 AM 84.2 °F 92.3 °F 75.2 °F 74% 30.01 in 6.2 mi ESE 15.0 mph - N/A   Partly Cloudy
10:00 AM 86.0 °F 95.1 °F 75.2 °F 70% 30.01 in 6.2 mi SE 13.8 mph - N/A   Scattered Clouds
11:00 AM 86 °F - 75 °F 64% 30.03 in 25 mi SE 12.7 mph - -   Scattered Clouds
11:00 AM 86.0 °F 95.1 °F 75.2 °F 70% 30.01 in 6.2 mi SE 12.7 mph - N/A   Scattered Clouds
12:00 PM 87.8 °F 97.6 °F 75.2 °F 66% 30.01 in 6.2 mi ESE 12.7 mph - N/A   Scattered Clouds
1:00 PM 87.8 °F 97.6 °F 75.2 °F 66% 30.01 in 6.2 mi SE 15.0 mph - N/A   Scattered Clouds
2:00 PM 87 °F - 76 °F 61% 29.99 in 19 mi SE 13.8 mph - -   Partly Cloudy
2:00 PM 87.8 °F 97.6 °F 75.2 °F 66% 29.98 in 6.2 mi ESE 13.8 mph - N/A   Scattered Clouds
3:00 PM 80.6 °F 86.2 °F 75.2 °F 84% 29.99 in 3.1 mi ESE 13.8 mph - N/A Rain Rain Showers
3:14 PM 82.4 °F 89.5 °F 75.2 °F 79% 29.98 in 6.2 mi ESE 9.2 mph - N/A   Mostly Cloudy
3:50 PM 84.2 °F 94.1 °F 77.0 °F 79% 29.98 in 3.1 mi ESE 10.4 mph - N/A Rain Light Rain Showers
4:07 PM 84.2 °F 96.1 °F 78.8 °F 84% 29.98 in 6.2 mi ESE 10.4 mph - N/A   Scattered Clouds
5:00 PM 85 °F - 77 °F 70% 29.98 in 22 mi East 13.8 mph - - Rain Light Rain Showers
5:00 PM 84.2 °F 94.1 °F 77.0 °F 79% 29.98 in 6.2 mi East 13.8 mph - N/A   Mostly Cloudy
6:00 PM 84.2 °F 94.1 °F 77.0 °F 79% 29.98 in 6.2 mi East 12.7 mph - N/A   Mostly Cloudy
7:00 PM 84.2 °F 92.3 °F 75.2 °F 74% 30.01 in 6.2 mi East 13.8 mph - N/A   Partly Cloudy
8:00 PM 84 °F - 76 °F 71% 30.04 in 16 mi ESE 10.4 mph - -   Partly Cloudy
8:00 PM 84.2 °F 94.1 °F 77.0 °F 79% 30.04 in 6.2 mi East 11.5 mph - N/A   Mostly Cloudy
9:00 PM 84.2 °F 92.3 °F 75.2 °F 74% 30.04 in 6.2 mi East 11.5 mph - N/A   Scattered Clouds
10:00 PM 84.2 °F 92.3 °F 75.2 °F 74% 30.04 in 6.2 mi ESE 11.5 mph - N/A   Partly Cloudy
11:00 PM 84 °F - 76 °F 71% 30.06 in 16 mi East 12.7 mph - -   Partly Cloudy
11:00 PM 84.2 °F 92.3 °F 75.2 °F 74% 30.06 in 6.2 mi East 11.5 mph - N/A   Scattered Clouds